Regional Weather Roundup
Issued by NWS

Home | Current Version | Previous Version | Text Only | Print | Product List | Glossary On
Versions: 1 2 3 4 5 6 7 8 9 10 11 12 13 14 15 16 17 18 19 20 21 22 23 24 25 26 27 28 29 30 31 32 33 34 35 36 37 38 39 40 41 42 43 44 45 46 47 48 49 50
000
ASUS46 KSEW 231410
RWRWA

WASHINGTON REGIONAL WEATHER ROUNDUP
NATIONAL WEATHER SERVICE SEATTLE WA
600 AM PST THU FEB 23 2017

NOTE:"FAIR" INDICATES FEW OR NO CLOUDS BELOW 12,000 FEET WITH NO
SIGNIFICANT WEATHER AND/OR OBSTRUCTIONS TO VISIBILITY.

WAZ507-509-555>559-231500-
SEATTLE, TACOMA, EVERETT, AND VICINITY

CITY           SKY/WX    TMP DP  RH WIND       PRES   REMARKS
EVERETT        CLOUDY    35  35 100 VRB3      30.22S FOG
BOEING FIELD   CLOUDY    35  35 100 S5        30.24S
RENTON         CLOUDY    35  34  96 CALM      30.24S
SEATAC AIRPORT CLOUDY    35  35 100 S3        30.22S
JBLM-MCCHORD   CLOUDY    33  33 100 S3        30.23S
PUYALLUP         N/A     34  34 100 CALM      30.22S
BREMERTON        N/A     30  30 100 CALM      30.25F
JBLM-FT LEWIS  CLOUDY    34  34 100 SE3       30.22F
TACOMA NARROWS CLOUDY    36  35  96 CALM      30.23S
$$

WAZ001-503-506-510-514-515-231500-
NORTH INTERIOR

CITY           SKY/WX    TMP DP  RH WIND       PRES   REMARKS
BELLINGHAM     CLOUDY    32  32 100 CALM      30.22S
FRIDAY HARBOR  PTCLDY    33  29  85 CALM      30.24S
EASTSOUND      CLOUDY    37  36  93 N6        30.22S
PORT ANGELES   CLOUDY    33  32  96 SW7       30.24S
EDIZ HOOK      PTSUNNY   37  34  89 SW9       30.25S
PORT TOWNSEND  CLOUDY    34  34 100 CALM      30.25S
NAS WHIDBEY    MOCLDY    34  30  85 SE3       30.28R
ARLINGTON      CLOUDY    30  23  74 CALM      30.26S VSB 1
BURLINGTON     MOCLDY    32  32 100 CALM      30.24R
$$

WAZ020-022-039-040-504-511-512-231500-
SOUTHWEST INTERIOR

CITY           SKY/WX    TMP DP  RH WIND       PRES   REMARKS
SHELTON        MOCLDY    32  30  92 CALM      30.21S
OLYMPIA        MOCLDY    33  33 100 CALM      30.24S
CHEHALIS       CLOUDY    32  32 100 CALM      30.24S
KELSO          FOG       33  33 100 N5        30.26S VSB 1/4
VANCOUVER      MOCLDY    32  32 100 CALM      30.26R FOG
SCAPPOOSE, OR  FOG       31  31 100 W3        30.26R VSB 1/4
PORTLAND, OR   CLOUDY    34  33  96 CALM      30.26R
$$

WAZ021-516-517-231500-
WASHINGTON COAST

CITY           SKY/WX    TMP DP  RH WIND       PRES   REMARKS
FORKS          CLEAR     28  27  96 E5        30.23S
HOQUIAM        PTCLDY    28  28 100 NE3       30.24R FOG
ASTORIA, OR    PTCLDY    31  28  89 SE3       30.24S
$$

WAZ019-023-024-040-567>569-231500-
CASCADE MOUNTAINS AND COLUMBIA GORGE

CITY           SKY/WX    TMP DP  RH WIND       PRES   REMARKS
STAMPEDE PASS  NOT AVBL
TROUTDALE, OR  CLOUDY    38  35  89 CALM      30.25S
THE DALLES, OR CLEAR     34  29  82 NW6       30.18S
$$

WAZ026-027-041>044-520-521-231500-
EAST SLOPES

CITY           SKY/WX    TMP DP  RH WIND       PRES   REMARKS
OMAK           CLEAR     19  11  70 N8        30.15R
WENATCHEE      CLEAR     24  20  84 W8        30.14R
ELLENSBURG     CLEAR     25  15  66 NW6       30.11R
YAKIMA         CLEAR     20  15  81 W6        30.15R
SUNNYSIDE ARPT SUNNY     21  20  94 CALM      30.15R
$$

WAZ028-034-035-231500-
COLUMBIA BASIN

CITY           SKY/WX    TMP DP  RH WIND       PRES   REMARKS
EPHRATA        CLEAR     30  15  53 NW10      30.09S WCI  21
MOSES LAKE     CLEAR     19  14  81 CALM      30.12R
PASCO          CLEAR     23  22  96 CALM      30.16R
HERMISTON, OR  CLEAR     25  25 100 CALM      30.14R
$$

WAZ036>038-231500-
NORTHEAST WASHINGTON

CITY           SKY/WX    TMP DP  RH WIND       PRES   REMARKS
SPOKANE GEIGER FOG       24  23  96 NW3       30.03S VSB 1/8
SPOKANE FELTS  FOG       27  27 100 CALM      30.06S VSB 1/2
FAIRCHILD AFB  FOG       20  20  99 N3        30.02S VSB 0
COEURDALENE,ID FOG       25  24  96 CALM      30.04R VSB 1/4
DEER PARK      CLEAR     12   9  87 NW7       30.05R
$$

WAZ029>033-231500-
SOUTHEAST WASHINGTON

CITY           SKY/WX    TMP DP  RH WIND       PRES   REMARKS
PULLMAN        CLOUDY    28  26  92 W8        30.03S
LEWISTON, ID   MOCLDY    32  26  78 W6        30.06R
WALLA WALLA    MOCLDY    30  28  92 S6        30.11S
PENDLETON, OR  MOCLDY    29  26  89 W5        30.10R
$$



USA.gov is the U.S. government's official web portal to all federal, state and local government web resources and services.